1514145600.44,60687,9.88,73488.0,-1.61,-2.31,-2.19,0,*53
1514145601.66,60688,9.88,73486.3,-1.61,-2.23,-2.23,0,*56
1514145602.89,60689,9.88,73480.0,-1.61,-2.23,-2.23,0,*57
1514145604.12,60690,9.88,73480.5,-1.61,-2.23,-2.23,0,*5F
1514145605.34,60691,9.88,73482.0,-1.61,-2.19,-2.19,0,*5E
1514145606.57,60692,9.88,73470.5,-1.61,-2.23,-2.23,0,*5D
1514145607.79,60693,9.88,73466.0,-1.61,-2.23,-2.23,0,*5C
1514145609.02,60694,9.88,73436.3,-1.61,-2.23,-2.19,0,*52
1514145610.24,60695,9.88,73432.8,-1.61,-2.23,-2.19,0,*53
1514145611.47,60696,9.88,73438.5,-1.61,-2.19,-2.23,0,*50
1514145612.69,60697,9.88,73444.5,-1.61,-2.19,-2.19,0,*58
1514145613.92,60698,9.88,73462.0,-1.61,-2.19,-2.23,0,*5E
1514145615.14,60699,9.88,73450.8,-1.61,-2.19,-2.19,0,*56
1514145616.37,60700,9.88,73456.5,-1.61,-2.23,-2.23,0,*57
1514145617.59,60701,9.88,73462.3,-1.61,-2.23,-2.19,0,*5F
1514145618.79,60702,9.88,73470.0,-1.63,-2.23,-2.19,0,*5E
1514145619.99,60703,9.88,73460.5,-1.63,-2.23,-2.19,0,*5F
1514145621.21,60704,9.88,73458.0,-1.61,-2.23,-2.19,0,*5A
1514145622.43,60705,9.88,73454.5,-1.61,-2.23,-2.19,0,*5B
1514145623.66,60706,9.88,73446.5,-1.61,-2.23,-2.19,0,*58
1514145624.88,60707,9.88,73440.5,-1.61,-2.23,-2.19,0,*59
1514145626.11,60708,9.88,73444.5,-1.61,-2.23,-2.23,0,*5F
1514145627.33,60709,9.88,73448.3,-1.61,-2.23,-2.23,0,*5E
1514145628.56,60710,9.88,73452.3,-1.61,-2.23,-2.23,0,*56
1514145629.78,60711,9.88,73462.0,-1.61,-2.23,-2.19,0,*5E
1514145631.01,60712,9.88,73464.0,-1.61,-2.23,-2.19,0,*5D
1514145632.23,60713,9.88,73468.3,-1.61,-2.23,-2.23,0,*55
1514145633.46,60714,9.88,73472.3,-1.61,-2.19,-2.23,0,*5B
1514145634.69,60715,9.88,73470.3,-1.61,-2.19,-2.23,0,*5A
1514145635.91,60716,9.88,73470.5,-1.61,-2.23,-2.23,0,*50
1514145637.14,60717,9.88,73474.0,-1.61,-2.23,-2.19,0,*58
1514145638.36,60718,9.88,73478.0,-1.61,-2.23,-2.23,0,*5E
1514145639.59,60719,9.88,73478.5,-1.61,-2.19,-2.23,0,*56
1514145640.81,60720,9.88,73478.0,-1.61,-2.23,-2.19,0,*5C
1514145642.04,60721,9.88,73478.0,-1.61,-2.23,-2.19,0,*5D
1514145643.27,60722,9.88,73478.0,-1.61,-2.31,-2.23,0,*54
1514145644.49,60723,9.88,73478.0,-1.61,-2.23,-2.23,0,*56
1514145645.72,60724,9.88,73474.0,-1.61,-2.23,-2.23,0,*51
1514145646.95,60725,9.88,73478.5,-1.61,-2.23,-2.23,0,*50
1514145648.17,60726,9.88,73482.3,-1.61,-2.31,-2.19,0,*59
1514145649.4,60727,9.88,73482.3,-1.61,-2.23,-2.23,0,*52
1514145650.63,60728,9.88,73482.3,-1.61,-2.19,-2.23,0,*54
1514145651.85,60729,9.88,73486.0,-1.61,-2.19,-2.23,0,*55
1514145653.08,60730,9.88,73482.5,-1.61,-2.23,-2.19,0,*5D
1514145654.3,60731,9.88,73480.0,-1.61,-2.19,-2.23,0,*5C
1514145655.5,60732,9.88,73482.3,-1.63,-2.23,-2.19,0,*5D
1514145656.72,60733,9.88,73480.3,-1.61,-2.23,-2.19,0,*5E
1514145657.95,60734,9.88,73476.5,-1.61,-2.23,-2.19,0,*59
1514145659.18,60735,9.88,73480.0,-1.61,-2.31,-2.23,0,*52
1514145660.4,60736,9.88,73482.0,-1.61,-2.23,-2.19,0,*5B
1514145661.62,60737,9.88,73484.8,-1.61,-2.23,-2.19,0,*5A
1514145662.85,60738,9.88,73490.8,-1.61,-2.23,-2.19,0,*55
1514145664.05,60739,9.88,73492.5,-1.63,-2.23,-2.23,0,*5F
1514145665.27,60740,9.88,73496.0,-1.61,-2.23,-2.23,0,*53
1514145666.5,60741,9.88,73498.0,-1.61,-2.23,-2.23,0,*52
1514145667.73,60742,9.88,73498.8,-1.61,-2.23,-2.23,0,*51
1514145668.92,60743,9.88,73498.8,-1.63,-2.23,-2.19,0,*5B
1514145670.15,60744,9.88,73502.8,-1.61,-2.23,-2.23,0,*57
1514145671.38,60745,9.88,73500.5,-1.61,-2.23,-2.23,0,*56
1514145672.6,60746,9.88,73500.0,-1.61,-2.19,-2.23,0,*5C
1514145673.8,60747,9.88,73510.3,-1.63,-2.23,-2.23,0,*56
1514145675.03,60748,9.88,73508.5,-1.61,-2.23,-2.23,0,*5B
1514145676.26,60749,9.88,73500.8,-1.61,-2.23,-2.23,0,*5A
1514145677.48,60750,9.88,73508.0,-1.61,-2.23,-2.23,0,*52
1514145678.68,60751,9.88,73500.0,-1.63,-2.23,-2.19,0,*58
1514145679.91,60752,9.88,73496.3,-1.61,-2.23,-2.23,0,*50
1514145681.1,60753,9.88,73492.0,-1.63,-2.23,-2.19,0,*5A
1514145682.33,60754,9.88,73488.8,-1.61,-2.19,-2.23,0,*5F
1514145683.56,60755,9.88,73488.5,-1.61,-2.23,-2.23,0,*57
1514145684.76,60756,9.88,73470.8,-1.63,-2.23,-2.23,0,*56
1514145685.98,60757,9.88,73460.8,-1.61,-2.23,-2.23,0,*55
1514145687.21,60758,9.88,73478.0,-1.61,-2.23,-2.23,0,*5A
1514145688.44,60759,9.88,73478.3,-1.61,-2.23,-2.23,0,*5B
1514145689.66,60760,9.88,73474.0,-1.61,-2.19,-2.23,0,*58
1514145690.89,60761,9.88,73484.8,-1.61,-2.23,-2.19,0,*59
1514145692.11,60762,9.88,73484.0,-1.61,-2.23,-2.23,0,*53
1514145693.34,60763,9.88,73484.8,-1.61,-2.23,-2.23,0,*52
1514145694.56,60764,9.88,73492.3,-1.61,-2.19,-2.23,0,*5C
1514145695.79,60765,9.88,73490.0,-1.61,-2.23,-2.19,0,*5D
1514145697.01,60766,9.88,73492.8,-1.61,-2.23,-2.19,0,*5E
1514145698.24,60767,9.88,73490.0,-1.61,-2.23,-2.23,0,*56
1514145699.44,60768,9.88,73488.5,-1.63,-2.23,-2.19,0,*52
1514145700.63,60769,9.88,73484.5,-1.63,-2.23,-2.19,0,*53
1514145701.86,60770,9.88,73480.5,-1.61,-2.23,-2.23,0,*50
1514145703.09,60771,9.88,73482.0,-1.61,-2.23,-2.23,0,*51
1514145704.31,60772,9.88,73490.0,-1.61,-2.19,-2.23,0,*5B
1514145705.54,60773,9.88,73482.5,-1.61,-2.19,-2.23,0,*5A
1514145706.77,60774,9.88,73484.5,-1.61,-2.23,-2.23,0,*54
1514145708.0,60775,9.88,73480.8,-1.61,-2.31,-2.31,0,*55
1514145709.22,60776,9.88,73486.5,-1.61,-2.19,-2.23,0,*5F
1514145710.45,60777,9.88,73488.3,-1.61,-2.23,-2.23,0,*57
1514145711.68,60778,9.88,73480.5,-1.61,-2.23,-2.23,0,*58
1514145712.9,60779,9.88,73484.5,-1.61,-2.23,-2.19,0,*50
1514145714.12,60780,9.88,73494.8,-1.61,-2.23,-2.19,0,*56
1514145715.32,60781,9.88,73502.5,-1.63,-2.23,-2.23,0,*5C
1514145716.55,60782,9.88,73510.5,-1.61,-2.23,-2.23,0,*5D
1514145717.75,60783,9.88,73508.8,-1.63,-2.23,-2.23,0,*5E
1514145718.98,60784,9.88,73510.3,-1.61,-2.19,-2.23,0,*52
1514145720.2,60785,9.88,73506.0,-1.61,-2.23,-2.19,0,*53
1514145721.4,60786,9.88,73504.8,-1.63,-2.23,-2.23,0,*5B
1514145722.63,60787,9.88,73504.8,-1.61,-2.23,-2.19,0,*51
1514145723.85,60788,9.88,73498.3,-1.61,-2.23,-2.23,0,*57
1514145725.07,60789,9.88,73494.3,-1.61,-2.23,-2.19,0,*5F
1514145726.27,60790,9.88,73492.0,-1.63,-2.23,-2.19,0,*55
1514145727.5,60791,9.88,73494.0,-1.61,-2.23,-2.23,0,*5F
1514145728.7,60792,9.88,73484.0,-1.63,-2.23,-2.23,0,*5E
1514145729.92,60793,9.88,73486.3,-1.61,-2.23,-2.19,0,*54
1514145731.15,60794,9.88,73480.3,-1.61,-2.31,-2.23,0,*59
1514145732.35,60795,9.88,73478.8,-1.59,-2.19,-2.19,0,*50
1514145733.58,60796,9.88,73478.3,-1.61,-2.23,-2.19,0,*51
1514145734.8,60797,9.88,73474.5,-1.61,-2.23,-2.23,0,*59
1514145736.03,60798,9.88,73466.8,-1.61,-2.19,-2.23,0,*5F
1514145737.23,60799,9.88,73464.5,-1.63,-2.23,-2.19,0,*5C
1514145738.45,60800,9.88,73464.5,-1.61,-2.23,-2.23,0,*58
1514145739.65,60801,9.88,73464.3,-1.63,-2.19,-2.23,0,*52
1514145740.88,60802,9.88,73458.5,-1.61,-2.19,-2.19,0,*5A
1514145742.1,60803,9.88,73456.0,-1.61,-2.19,-2.23,0,*52
1514145743.33,60804,9.88,73454.3,-1.61,-2.23,-2.23,0,*5C
1514145744.56,60805,9.88,73456.5,-1.61,-2.23,-2.23,0,*5D
1514145745.78,60806,9.88,73460.3,-1.61,-2.23,-2.19,0,*57
1514145746.98,60807,9.88,73460.8,-1.63,-2.23,-2.19,0,*54
1514145748.2,60808,9.88,73472.3,-1.61,-2.19,-2.23,0,*59
1514145749.4,60809,9.88,73476.3,-1.63,-2.23,-2.23,0,*53
1514145750.63,60810,9.88,73480.5,-1.61,-2.23,-2.19,0,*50
1514145751.86,60811,9.88,73482.5,-1.61,-2.19,-2.23,0,*51
1514145753.08,60812,9.88,73486.0,-1.61,-2.23,-2.23,0,*5B
1514145754.31,60813,9.88,73484.0,-1.61,-2.23,-2.23,0,*5A
1514145755.53,60814,9.88,73490.5,-1.61,-2.23,-2.23,0,*5D
1514145756.76,60815,9.88,73488.3,-1.61,-2.23,-2.23,0,*5C
1514145757.99,60816,9.88,73490.5,-1.61,-2.19,-2.23,0,*56
1514145759.21,60817,9.88,73488.0,-1.61,-2.23,-2.23,0,*5E
1514145760.44,60818,9.88,73494.3,-1.61,-2.23,-2.23,0,*51
1514145761.64,60819,9.88,73490.3,-1.63,-2.23,-2.23,0,*52
1514145762.84,60820,9.88,73482.3,-1.63,-2.23,-2.23,0,*58
1514145764.07,60821,9.88,73470.3,-1.61,-2.23,-2.23,0,*5B
1514145765.29,60822,9.88,73474.8,-1.61,-2.23,-2.23,0,*58
1514145766.52,60823,9.88,73468.3,-1.61,-2.23,-2.19,0,*50
1514145767.74,60824,9.88,73462.8,-1.61,-2.23,-2.23,0,*5E
1514145768.97,60825,9.88,73460.3,-1.61,-2.19,-2.19,0,*5F
1514145770.17,60826,9.88,73454.8,-1.63,-2.23,-2.23,0,*5E
1514145771.39,60827,9.88,73458.3,-1.61,-2.23,-2.23,0,*5D
1514145772.62,60828,9.88,73458.0,-1.63,-2.23,-2.11,0,*51
1514145773.82,60829,9.88,73464.3,-1.63,-2.19,-2.23,0,*58
1514145775.04,60830,9.88,73464.0,-1.61,-2.19,-2.23,0,*52
1514145776.27,60831,9.88,73456.0,-1.61,-2.23,-2.23,0,*5A
1514145777.49,60832,9.88,73456.8,-1.61,-2.23,-2.19,0,*50
1514145778.72,60833,9.88,73456.3,-1.61,-2.19,-2.19,0,*58
1514145779.94,60834,9.88,73466.5,-1.61,-2.23,-2.19,0,*56
1514145781.16,60835,9.88,73470.0,-1.61,-2.23,-2.19,0,*57
1514145782.39,60836,9.88,73472.3,-1.61,-2.23,-2.23,0,*5D
1514145783.61,60837,9.88,73486.8,-1.61,-2.23,-2.19,0,*55
1514145784.84,60838,9.88,73472.8,-1.61,-2.23,-2.23,0,*53
1514145786.04,60839,9.88,73474.5,-1.63,-2.23,-2.19,0,*59
1514145787.23,60840,9.88,73472.0,-1.63,-2.23,-2.19,0,*57
1514145788.44,60841,9.88,73476.5,-1.63,-2.23,-2.23,0,*5F
1514145789.66,60842,9.88,73488.0,-1.61,-2.23,-2.23,0,*5E
1514145790.89,60843,9.88,73486.5,-1.61,-2.23,-2.19,0,*56
1514145792.11,60844,9.88,73490.0,-1.61,-2.23,-2.23,0,*58
1514145793.34,60845,9.88,73488.5,-1.61,-2.23,-2.23,0,*59
1514145794.56,60846,9.88,73474.5,-1.61,-2.23,-2.19,0,*53
1514145795.79,60847,9.88,73472.3,-1.61,-2.19,-2.23,0,*52
1514145797.01,60848,9.88,73466.0,-1.61,-2.23,-2.23,0,*54
1514145798.24,60849,9.88,73470.3,-1.61,-2.23,-2.19,0,*5C
1514145799.46,60850,9.94,73476.5,-1.61,-2.23,-2.19,0,*54
1514145800.69,60851,9.88,73472.3,-1.61,-2.19,-2.31,0,*56
1514145801.92,60852,9.88,73478.5,-1.61,-2.23,-2.23,0,*5F
1514145803.14,60853,9.88,73474.5,-1.61,-2.23,-2.23,0,*5E
1514145804.37,60854,9.88,73478.3,-1.61,-2.23,-2.23,0,*59
1514145805.6,60855,9.88,73478.0,-1.61,-2.23,-2.23,0,*58
1514145806.82,60856,9.88,73484.0,-1.61,-2.23,-2.23,0,*5B
1514145808.05,60857,9.88,73482.0,-1.61,-2.19,-2.23,0,*53
1514145809.27,60858,9.88,73476.3,-1.61,-2.23,-2.19,0,*5C
1514145810.49,60859,9.88,73464.5,-1.61,-2.23,-2.19,0,*5D
1514145811.72,60860,9.88,73466.3,-1.61,-2.23,-2.23,0,*5E
1514145812.95,60861,9.88,73476.8,-1.61,-2.23,-2.23,0,*5F
1514145814.17,60862,9.88,73482.5,-1.61,-2.23,-2.19,0,*55
1514145815.39,60863,9.88,73482.8,-1.61,-2.23,-2.19,0,*54
1514145816.62,60864,9.88,73484.3,-1.61,-2.23,-2.23,0,*5A
1514145817.85,60865,9.88,73486.0,-1.61,-2.31,-2.23,0,*58
1514145819.08,60866,9.88,73494.0,-1.61,-2.31,-2.23,0,*5B
1514145820.31,60867,9.88,73496.5,-1.61,-2.19,-2.23,0,*50
1514145821.51,60868,9.88,73488.8,-1.63,-2.23,-2.19,0,*5D
1514145822.73,60869,9.88,73490.5,-1.61,-2.19,-2.23,0,*5E
1514145823.96,60870,9.88,73490.0,-1.61,-2.19,-2.19,0,*5F
1514145825.18,60871,9.88,73494.5,-1.61,-2.23,-2.23,0,*5E
1514145826.41,60872,9.88,73500.5,-1.61,-2.23,-2.23,0,*5D
1514145827.63,60873,9.88,73502.3,-1.61,-2.23,-2.23,0,*5C
1514145828.86,60874,9.88,73500.5,-1.61,-2.19,-2.23,0,*52
1514145830.09,60875,9.88,73494.0,-1.61,-2.19,-2.23,0,*53
1514145831.29,60876,9.88,73490.0,-1.59,-2.19,-2.19,0,*52
1514145832.51,60877,9.88,73486.8,-1.61,-2.23,-2.19,0,*51
1514145833.73,60878,9.88,73486.3,-1.61,-2.23,-2.19,0,*5E
1514145834.96,60879,9.88,73488.5,-1.61,-2.19,-2.19,0,*56
1514145836.18,60880,9.88,73482.3,-1.61,-2.23,-2.23,0,*50
1514145837.41,60881,9.88,73468.3,-1.61,-2.19,-2.23,0,*58
1514145838.61,60882,9.88,73474.3,-1.63,-2.23,-2.19,0,*59
1514145839.83,60883,9.88,73468.5,-1.61,-2.19,-2.23,0,*5A
1514145841.04,60884,9.88,73472.3,-1.63,-2.31,-2.19,0,*5C
1514145842.26,60885,9.88,73470.5,-1.61,-2.23,-2.23,0,*55
1514145843.49,60886,9.88,73476.5,-1.61,-2.23,-2.19,0,*5F
1514145844.71,60887,9.88,73476.0,-1.61,-2.23,-2.23,0,*57
1514145845.91,60888,9.88,73472.8,-1.63,-2.23,-2.19,0,*53
1514145847.13,60889,9.88,73470.5,-1.61,-2.23,-2.19,0,*50
1514145848.36,60890,9.88,73472.5,-1.61,-2.23,-2.19,0,*58
1514145849.58,60891,9.88,73474.0,-1.61,-2.23,-2.23,0,*50
1514145850.78,60892,9.88,73476.0,-1.63,-2.23,-2.19,0,*58
1514145852.0,60893,9.88,73476.3,-1.61,-2.19,-2.19,0,*52
1514145853.23,60894,9.88,73476.3,-1.61,-2.23,-2.19,0,*5C
1514145854.46,60895,9.88,73484.0,-1.61,-2.23,-2.23,0,*54
1514145855.68,60896,9.88,73488.0,-1.61,-2.19,-2.23,0,*5E
1514145856.91,60897,9.88,73490.5,-1.61,-2.23,-2.23,0,*56
1514145858.13,60898,9.88,73480.3,-1.61,-2.23,-2.23,0,*59
1514145859.36,60899,9.88,73484.0,-1.61,-2.19,-2.23,0,*51
1514145860.58,60900,9.88,73484.0,-1.61,-2.19,-2.19,0,*59
1514145861.81,60901,9.88,73482.0,-1.61,-2.23,-2.23,0,*58
1514145863.04,60902,9.88,73490.0,-1.61,-2.23,-2.23,0,*5B
1514145864.26,60903,9.88,73474.0,-1.61,-2.23,-2.23,0,*5A
1514145865.49,60904,9.88,73472.3,-1.61,-2.23,-2.19,0,*54
1514145866.71,60905,9.88,73466.5,-1.61,-2.31,-2.19,0,*56
1514145867.94,60906,9.88,73464.5,-1.61,-2.31,-2.19,0,*55
1514145869.17,60907,9.88,73466.5,-1.61,-2.23,-2.23,0,*5E
1514145870.39,60908,9.88,73460.5,-1.61,-2.23,-2.19,0,*58
1514145871.62,60909,9.88,73462.3,-1.61,-2.19,-2.31,0,*5A
1514145872.85,60910,9.88,73466.8,-1.61,-2.19,-2.31,0,*52
1514145874.08,60911,9.88,73470.0,-1.61,-2.31,-2.31,0,*59
1514145875.3,60912,9.88,73474.0,-1.61,-2.19,-2.23,0,*53
1514145876.53,60913,9.88,73474.0,-1.61,-2.19,-2.19,0,*5B
1514145877.75,60914,9.88,73476.3,-1.61,-2.23,-2.19,0,*55
1514145878.98,60915,9.88,73482.8,-1.61,-2.23,-2.23,0,*5D
1514145880.18,60916,9.88,73492.0,-1.59,-2.19,-2.19,0,*55
1514145881.38,60917,9.88,73486.0,-1.59,-2.19,-2.19,0,*54
1514145882.6,60918,9.88,73470.8,-1.61,-2.23,-2.23,0,*50
1514145883.83,60919,9.88,73466.8,-1.61,-2.23,-2.31,0,*52
1514145885.03,60920,9.88,73448.0,-1.63,-2.19,-2.23,0,*50
1514145886.26,60921,9.88,73446.3,-1.61,-2.23,-2.23,0,*5A
1514145887.48,60922,9.88,73446.8,-1.61,-2.23,-2.19,0,*50
1514145888.68,60923,9.88,73456.0,-1.63,-2.23,-2.23,0,*5A
1514145889.9,60924,9.88,73452.5,-1.61,-2.23,-2.19,0,*56
1514145891.13,60925,9.88,73452.3,-1.61,-2.23,-2.23,0,*5E
1514145892.36,60926,9.88,73460.3,-1.61,-2.19,-2.23,0,*54
1514145893.58,60927,9.88,73466.5,-1.61,-2.23,-2.23,0,*5C
1514145894.81,60928,9.88,73472.0,-1.61,-2.23,-2.23,0,*53
1514145896.01,60929,9.88,73482.5,-1.63,-2.23,-2.23,0,*50
1514145897.24,60930,9.88,73486.8,-1.61,-2.23,-2.23,0,*5A
1514145898.46,60931,9.88,73480.8,-1.61,-2.23,-2.23,0,*5B
1514145899.69,60932,9.88,73486.8,-1.61,-2.19,-2.23,0,*51
1514145900.92,60933,9.88,73490.3,-1.61,-2.19,-2.23,0,*50
1514145902.14,60934,9.88,73490.3,-1.61,-2.23,-2.23,0,*5E
1514145903.34,60935,9.88,73472.5,-1.63,-2.19,-2.23,0,*54
1514145904.57,60936,9.88,73478.5,-1.61,-2.23,-2.19,0,*55
1514145905.8,60937,9.88,73486.3,-1.61,-2.31,-2.23,0,*5E
1514145907.0,60938,9.88,73490.0,-1.63,-2.23,-2.23,0,*50
1514145908.2,60939,9.88,73486.5,-1.63,-2.23,-2.23,0,*51
1514145909.42,60940,9.88,73486.3,-1.61,-2.23,-2.23,0,*5D
1514145910.65,60941,9.88,73494.8,-1.61,-2.23,-2.23,0,*5C
1514145911.87,60942,9.88,73494.5,-1.61,-2.23,-2.19,0,*56
1514145913.1,60943,9.88,73496.3,-1.61,-2.23,-2.19,0,*57
1514145914.32,60944,9.88,73498.5,-1.61,-2.23,-2.23,0,*59
1514145915.55,60945,9.88,73504.8,-1.61,-2.23,-2.23,0,*58
1514145916.77,60946,9.88,73504.5,-1.61,-2.23,-2.19,0,*52
1514145918.0,60947,9.88,73500.5,-1.61,-2.23,-2.23,0,*5A
1514145919.22,60948,9.88,73506.3,-1.61,-2.23,-2.19,0,*5C
1514145920.45,60949,9.88,73494.0,-1.61,-2.23,-2.23,0,*54
1514145921.67,60950,9.88,73492.8,-1.61,-2.19,-2.19,0,*5C
1514145922.9,60951,9.88,73508.3,-1.61,-2.23,-2.19,0,*54
1514145924.12,60952,9.88,73512.8,-1.61,-2.23,-2.23,0,*5E
1514145925.35,60953,9.88,73512.3,-1.61,-2.23,-2.23,0,*5F
1514145926.58,60954,9.88,73508.5,-1.61,-2.19,-2.23,0,*51
1514145927.8,60955,9.88,73502.0,-1.61,-2.23,-2.23,0,*59
1514145929.03,60956,9.88,73500.3,-1.61,-2.19,-2.23,0,*53
1514145930.26,60957,9.88,73504.0,-1.61,-2.31,-2.23,0,*58
1514145931.49,60958,9.88,73500.8,-1.61,-2.23,-2.23,0,*54
1514145932.71,60959,9.88,73500.3,-1.61,-2.23,-2.23,0,*55
1514145933.94,60960,9.88,73482.0,-1.61,-2.19,-2.19,0,*5F
1514145935.16,60961,9.88,73478.0,-1.61,-2.23,-2.19,0,*57
1514145936.38,60962,9.88,73466.5,-1.61,-2.23,-2.19,0,*54
1514145937.58,60963,9.88,73470.5,-1.63,-2.31,-2.19,0,*54
1514145938.81,60964,9.88,73468.3,-1.61,-2.23,-2.19,0,*52
1514145940.03,60965,9.88,73466.5,-1.61,-2.23,-2.23,0,*5A
1514145941.26,60966,9.88,73478.8,-1.61,-2.23,-2.19,0,*50
1514145942.49,60967,9.88,73470.5,-1.61,-2.31,-2.23,0,*5B
1514145943.71,60968,9.88,73468.8,-1.61,-2.23,-2.19,0,*5E
1514145944.94,60969,9.88,73476.3,-1.61,-2.23,-2.23,0,*56
1514145946.17,60970,9.88,73476.3,-1.61,-2.23,-2.23,0,*5E
1514145947.39,60971,9.88,73476.3,-1.61,-2.19,-2.31,0,*55
1514145948.59,60972,9.88,73472.0,-1.63,-2.23,-2.31,0,*5D
1514145949.79,60973,9.88,73468.3,-1.63,-2.19,-2.23,0,*56
1514145951.02,60974,9.88,73468.0,-1.61,-2.23,-2.23,0,*5A
1514145952.22,60975,9.88,73468.8,-1.63,-2.23,-2.23,0,*59
1514145953.45,60976,9.88,73470.0,-1.61,-2.31,-2.23,0,*5B
1514145954.68,60977,9.88,73464.8,-1.61,-2.23,-2.23,0,*59
1514145955.9,60978,9.88,73464.0,-1.61,-2.19,-2.19,0,*56
1514145957.1,60979,9.88,73454.0,-1.63,-2.23,-2.23,0,*55
1514145958.33,60980,9.88,73450.0,-1.61,-2.23,-2.19,0,*58
1514145959.55,60981,9.88,73448.3,-1.61,-2.23,-2.19,0,*59
1514145960.78,60982,9.94,73458.8,-1.61,-2.23,-2.23,0,*53
1514145962.0,60983,9.88,73454.0,-1.61,-2.23,-2.23,0,*52
1514145963.2,60984,9.88,73460.3,-1.63,-2.23,-2.23,0,*57
1514145964.43,60985,9.88,73462.5,-1.61,-2.23,-2.23,0,*54
1514145965.66,60986,9.88,73464.5,-1.61,-2.19,-2.23,0,*5E
1514145966.88,60987,9.88,73472.5,-1.61,-2.23,-2.23,0,*56
1514145968.11,60988,9.88,73474.0,-1.61,-2.23,-2.23,0,*59
1514145969.33,60989,9.88,73484.5,-1.61,-2.23,-2.23,0,*58
1514145970.56,60990,9.88,73480.0,-1.61,-2.19,-2.19,0,*50
1514145971.78,60991,9.88,73484.0,-1.61,-2.19,-2.23,0,*58
1514145972.98,60992,9.88,73486.3,-1.63,-2.19,-2.23,0,*59
1514145974.18,60993,9.88,73484.8,-1.63,-2.23,-2.19,0,*58
1514145975.41,60994,9.88,73484.8,-1.61,-2.19,-2.19,0,*54
1514145976.63,60995,9.88,73488.3,-1.61,-2.23,-2.23,0,*55
1514145977.84,60996,9.88,73490.5,-1.63,-2.31,-2.23,0,*57
1514145979.06,60997,9.88,73476.5,-1.61,-2.23,-2.23,0,*57
1514145980.26,60998,9.88,73472.8,-1.63,-2.23,-2.19,0,*53
1514145981.49,60999,9.88,73468.8,-1.61,-2.23,-2.23,0,*59
1514145982.71,61000,9.88,73468.3,-1.61,-2.19,-2.23,0,*58
1514145983.94,61001,9.88,73468.0,-1.61,-2.23,-2.23,0,*50
1514145985.17,61002,9.88,73474.0,-1.61,-2.23,-2.23,0,*53
1514145986.39,61003,9.88,73478.5,-1.61,-2.23,-2.23,0,*52
1514145987.62,61004,9.88,73486.3,-1.61,-2.23,-2.23,0,*55
1514145988.85,61005,9.88,73486.3,-1.61,-2.19,-2.23,0,*5D
1514145990.07,61006,9.88,73490.0,-1.61,-2.23,-2.19,0,*5E
1514145991.3,61007,9.88,73490.3,-1.61,-2.23,-2.23,0,*56
1514145992.52,61008,9.88,73484.5,-1.61,-2.23,-2.19,0,*50
1514145993.72,61009,9.88,73484.3,-1.63,-2.23,-2.19,0,*53
1514145994.94,61010,9.88,73492.8,-1.61,-2.23,-2.23,0,*50
1514145996.17,61011,9.88,73486.5,-1.61,-2.23,-2.19,0,*58
1514145997.39,61012,9.88,73482.8,-1.61,-2.31,-2.19,0,*58
1514145998.62,61013,9.88,73472.0,-1.61,-2.23,-2.23,0,*53
1514145999.83,61014,9.88,73468.8,-1.63,-2.31,-2.23,0,*55
1514146001.05,61015,9.88,73480.0,-1.61,-2.23,-2.23,0,*55
1514146002.28,61016,9.88,73480.0,-1.61,-2.23,-2.23,0,*56
1514146003.48,61017,9.88,73496.8,-1.63,-2.23,-2.19,0,*5C
1514146004.7,61018,9.88,73502.3,-1.61,-2.23,-2.23,0,*58
1514146005.93,61019,9.88,73492.3,-1.61,-2.19,-2.31,0,*53
1514146007.16,61020,9.88,73486.5,-1.61,-2.19,-2.23,0,*5A
1514146008.38,61021,9.88,73476.8,-1.61,-2.23,-2.23,0,*52
1514146009.61,61022,9.88,73480.3,-1.61,-2.23,-2.31,0,*52
1514146010.84,61023,9.88,73470.5,-1.61,-2.23,-2.23,0,*50
1514146012.06,61024,9.88,73468.3,-1.61,-2.23,-2.23,0,*57
1514146013.29,61025,9.88,73478.3,-1.61,-2.31,-2.19,0,*5C
1514146014.52,61026,9.88,73474.3,-1.61,-2.23,-2.23,0,*55
1514146015.72,61027,9.88,73470.3,-1.63,-2.23,-2.23,0,*56
1514146016.94,61028,9.88,73462.8,-1.61,-2.23,-2.23,0,*5B
1514146018.17,61029,9.88,73460.8,-1.61,-2.23,-2.23,0,*5A
1514146019.4,61030,9.88,73456.8,-1.61,-2.23,-2.23,0,*52
1514146020.6,61031,9.88,73456.3,-1.63,-2.23,-2.23,0,*51
1514146021.82,61032,9.88,73454.8,-1.61,-2.23,-2.23,0,*50
1514146023.05,61033,9.88,73454.8,-1.61,-2.23,-2.23,0,*51
1514146024.25,61034,9.88,73468.0,-1.63,-2.23,-2.19,0,*5D
1514146025.47,61035,9.88,73474.8,-1.61,-2.23,-2.23,0,*57
1514146026.7,61036,9.88,73474.3,-1.61,-2.19,-2.23,0,*5D
1514146027.93,61037,9.88,73468.0,-1.61,-2.23,-2.23,0,*55
1514146029.13,61038,9.88,73466.5,-1.63,-2.23,-2.19,0,*51
1514146030.33,61039,9.88,73468.0,-1.63,-2.31,-2.23,0,*5A
1514146031.56,61040,9.88,73472.0,-1.61,-2.31,-2.23,0,*56
1514146032.79,61041,9.88,73470.8,-1.61,-2.23,-2.23,0,*54
1514146034.01,61042,9.88,73474.3,-1.61,-2.23,-2.19,0,*5E
1514146035.21,61043,9.88,73474.8,-1.63,-2.19,-2.23,0,*5D
1514146036.44,61044,9.88,73474.5,-1.61,-2.23,-2.23,0,*51
1514146037.64,61045,9.88,73480.3,-1.63,-2.23,-2.23,0,*52
1514146038.84,61046,9.88,73480.3,-1.63,-2.23,-2.19,0,*58
1514146040.03,61047,9.88,73486.0,-1.63,-2.23,-2.19,0,*59
1514146041.26,61048,9.88,73482.8,-1.61,-2.23,-2.23,0,*5D
1514146042.49,61049,9.88,73486.8,-1.61,-2.23,-2.23,0,*5C
1514146043.69,61050,9.88,73484.0,-1.63,-2.19,-2.23,0,*5F
1514146044.91,61051,9.88,73482.5,-1.61,-2.23,-2.23,0,*55
1514146046.11,61052,9.88,73486.5,-1.63,-2.23,-2.23,0,*54
1514146047.31,61053,9.88,73478.0,-1.63,-2.23,-2.23,0,*55
1514146048.54,61054,9.88,73468.3,-1.61,-2.23,-2.19,0,*59
1514146049.76,61055,9.94,73474.5,-1.61,-2.23,-2.23,0,*51
1514146050.99,61056,9.88,73472.0,-1.61,-2.31,-2.23,0,*51
1514146052.19,61057,9.88,73474.5,-1.63,-2.19,-2.19,0,*51
1514146053.39,61058,9.88,73486.8,-1.63,-2.23,-2.23,0,*5E
1514146054.62,61059,9.88,73466.0,-1.61,-2.19,-2.23,0,*54
1514146055.85,61060,9.88,73454.0,-1.61,-2.31,-2.23,0,*54
1514146057.05,61061,9.88,73458.8,-1.63,-2.23,-2.23,0,*54
1514146058.28,61062,9.88,73468.0,-1.61,-2.19,-2.23,0,*5C
1514146059.5,61063,9.88,73466.3,-1.61,-2.23,-2.23,0,*54
1514146060.73,61064,9.88,73470.0,-1.61,-2.23,-2.23,0,*53
1514146061.95,61065,9.88,73486.5,-1.61,-2.23,-2.23,0,*52
1514146063.18,61066,9.88,73490.5,-1.61,-2.23,-2.23,0,*51
1514146064.41,61067,9.88,73494.8,-1.61,-2.23,-2.23,0,*50
1514146065.63,61068,9.88,73492.5,-1.61,-2.23,-2.19,0,*56
1514146066.86,61069,9.88,73492.0,-1.61,-2.23,-2.23,0,*5E
1514146068.08,61070,9.88,73484.0,-1.61,-2.23,-2.19,0,*5F
1514146069.28,61071,9.88,73498.8,-1.63,-2.23,-2.23,0,*55
1514146070.51,61072,9.88,73498.5,-1.61,-2.19,-2.23,0,*5D
1514146071.71,61073,9.88,73490.8,-1.63,-2.23,-2.23,0,*57
1514146072.94,61074,9.88,73484.0,-1.61,-2.19,-2.23,0,*5B
1514146074.16,61075,9.88,73478.8,-1.61,-2.23,-2.23,0,*53
1514146075.36,61076,9.88,73478.8,-1.63,-2.23,-2.31,0,*51
1514146076.56,61077,9.88,73486.3,-1.63,-2.23,-2.23,0,*53
1514146077.79,61078,9.88,73492.8,-1.61,-2.31,-2.23,0,*5D
1514146079.02,61079,9.88,73494.0,-1.61,-2.31,-2.23,0,*5C
1514146080.22,61080,9.88,73498.8,-1.63,-2.23,-2.23,0,*5B
1514146081.45,61081,9.88,73496.8,-1.61,-2.23,-2.23,0,*58
1514146082.65,61082,9.88,73500.8,-1.63,-2.23,-2.23,0,*59
1514146083.88,61083,9.88,73500.5,-1.61,-2.23,-2.23,0,*5A
1514146085.1,61084,9.88,73498.8,-1.61,-2.23,-2.23,0,*5D
1514146086.3,61085,9.88,73496.5,-1.63,-2.23,-2.19,0,*57
1514146087.53,61086,9.94,73492.0,-1.61,-2.23,-2.23,0,*5F
1514146088.76,61087,9.88,73484.5,-1.61,-2.23,-2.23,0,*5E
1514146089.96,61088,9.88,73492.3,-1.63,-2.23,-2.23,0,*53
1514146091.16,61089,9.88,73492.3,-1.63,-2.31,-2.23,0,*51
1514146092.38,61090,9.88,73496.0,-1.61,-2.19,-2.19,0,*58
1514146093.59,61091,9.88,73492.3,-1.63,-2.31,-2.23,0,*58
1514146094.79,61092,9.88,73486.8,-1.63,-2.31,-2.23,0,*5B
1514146095.99,61093,9.88,73476.5,-1.63,-2.31,-2.19,0,*53
1514146097.2,61094,9.88,73476.0,-1.63,-2.31,-2.31,0,*5E
1514146098.4,61095,9.88,73472.0,-1.63,-2.31,-2.35,0,*5B
1514146099.63,61096,9.88,73468.5,-1.61,-2.23,-2.19,0,*57
1514146100.83,61097,9.88,73460.5,-1.63,-2.23,-2.23,0,*5D
1514146102.05,61098,9.88,73460.3,-1.61,-2.23,-2.23,0,*50
1514146103.28,61099,9.88,73462.3,-1.61,-2.23,-2.23,0,*51
1514146104.48,61100,9.88,73452.5,-1.63,-2.23,-2.23,0,*52
1514146105.68,61101,9.88,73442.3,-1.63,-2.23,-2.23,0,*53
1514146106.91,61102,9.88,73432.0,-1.61,-2.23,-2.23,0,*52
1514146108.1,61103,9.88,73434.8,-1.63,-2.23,-2.19,0,*58
1514146109.3,61104,9.88,73426.3,-1.63,-2.23,-2.23,0,*56
1514146110.53,61105,9.88,73426.5,-1.61,-2.19,-2.31,0,*5F
1514146111.76,61106,9.88,73426.8,-1.61,-2.23,-2.31,0,*55
1514146112.99,61107,9.88,73418.8,-1.61,-2.23,-2.31,0,*54